Location: Gälforsberget
(66.6500°N, 22.4167°E)
Time: 15:54:09
(UTC+00:00)

Helios 1A - Pass Details

Date: 11 April 2026
Orbit: 541 x 559 km, 98.2° (Epoch: 17 May)

Event Time Altitude Azimuth Distance (km) Brightness Sun altitude
Rises 22:58:46 0° 24° (NNE) 2,767 7.9 -14.6°
Reaches altitude 10° 23:01:05 10° 14° (NNE) 1,866 6.9 -14.6°
Maximum altitude 23:04:38 31° 312° (NW) 1,013 4.5 -14.5°
Drops below altitude 10° 23:08:09 10° 250° (WSW) 1,851 5.2 -14.5°
Enters shadow 23:08:39 - 247° (WSW) 2,036 5.4 -14.4°
